Terminal Aerodrome Forecast
Issued by NWS

Home | Current Version | Previous Version | Text Only | Print | Product List | Glossary On
Versions: 1 2 3 4 5 6 7 8 9 10 11 12
000
FTUS45 KFGZ 230500
TAFPGA
TAF
KPGA 230536Z 2306/2406 VRB06KT P6SM BKN140
     FM240230 VRB05KT P6SM BKN100=

USA.gov is the U.S. government's official web portal to all federal, state and local government web resources and services.